Location: Ammerl�gen
(47.2167°N, 9.6000°E)
Time: 09:37:25
(UTC+00:00)

USA 229 DEB - Pass Details

Date: 21 April 2021
Orbit: 960 x 1252 km, 63.4° (Epoch: 23 April)

Event Time Altitude Azimuth Distance (km) Brightness Sun altitude
Rises 21:10:25 0° 319° (NW) 3,934 8.1 -23.9°
Reaches altitude 10° 21:13:04 10° 323° (NW) 3,014 7.1 -24.2°
Maximum altitude 21:20:17 65° 45° (NE) 1,290 4.1 -24.9°
Enters shadow 21:23:02 41° 110° (ESE) 1,675 4.3 -25.1°
